Theta_e
291 292 291 292 291 290 290 290 289 289 291 291 287 287 291 290 284 282 286 288 286 289 292 294 295 296 297 297 298 299 301 303 304 304 303 304 305 307 307 308 309 309 309 310 311 311 311 311 311 312 311 311 313 313 313 313 314 315 315 313 312 311 311 310 310 310 311 311 310 310 309 308 308 307 307 306 306 305 305 305 305 305 305 305 304 304 304
289 290 291 291 290 289 289 289 289 290 290 289 290 290 290 289 287 288 288 288 288 291 293 295 295 298 298 299 299 300 299 300 302 304 304 304 304 305 306 308 308 309 310 310 311 311 312 311 311 309 309 310 311 311 311 312 313 314 313 312 311 309 309 309 310 310 310 310 309 309 308 307 307 306 305 305 305 305 304 304 304 304 304 304 304 304 303
286 289 289 290 289 288 287 288 289 289 289 289 290 289 289 290 288 287 288 287 287 293 296 296 298 299 299 299 299 299 300 300 301 302 303 303 304 303 304 306 308 309 309 310 310 310 311 312 311 309 309 309 310 310 311 311 312 312 311 310 309 308 308 309 310 310 309 308 308 307 307 307 306 305 304 304 304 303 303 303 303 303 303 303 303 303 303
282 287 287 288 288 288 286 286 287 287 287 285 286 286 289 287 285 287 287 285 286 292 295 296 298 298 297 297 298 298 299 300 301 300 302 302 304 305 304 307 307 308 311 309 310 311 312 312 310 309 309 308 309 309 311 310 310 310 310 309 308 308 308 309 309 308 308 307 307 306 306 305 304 304 304 303 303 303 302 302 302 303 302 302 302 302 302
281 286 288 287 285 284 281 282 285 287 288 289 290 290 291 290 290 286 284 284 291 294 296 295 296 297 296 297 297 298 301 301 302 302 302 303 304 305 304 306 306 310 309 309 311 311 311 309 308 309 309 308 308 309 310 310 310 308 308 308 308 308 308 308 308 308 307 306 306 306 305 304 304 303 303 302 302 301 301 301 301 300 300 301 300 301 300
281 285 286 286 282 275 277 288 292 292 288 288 287 287 289 292 293 288 292 292 294 295 295 294 294 295 296 298 301 303 302 300 303 303 304 304 306 306 305 306 306 310 309 310 310 311 311 310 310 310 310 308 308 310 310 309 308 307 307 307 308 307 308 307 307 307 306 305 304 304 304 304 303 302 302 301 301 301 301 301 300 299 300 299 299 299 299
280 284 284 279 274 276 286 292 294 294 293 292 291 292 293 294 296 295 293 292 294 295 296 296 296 298 300 301 301 301 302 302 304 304 305 306 307 309 306 308 308 308 310 309 310 310 310 310 311 310 308 308 309 309 309 308 307 307 307 307 307 308 307 307 306 306 305 305 304 303 303 303 302 302 301 301 301 300 300 299 299 298 298 298 298 298 298
284 281 280 272 274 286 291 292 293 295 294 293 291 289 292 293 293 294 293 293 295 296 296 298 299 298 299 300 301 302 303 302 302 304 305 305 307 307 307 307 308 308 309 309 309 310 311 310 309 309 308 309 309 308 309 307 307 307 307 306 307 307 306 305 305 305 305 304 304 303 302 302 301 301 301 300 300 300 299 299 299 299 299 298 298 297 298
278 280 279 279 286 285 287 285 287 289 287 288 288 283 286 293 294 294 293 294 296 298 298 298 300 300 299 298 298 301 302 303 304 306 305 308 308 307 308 309 309 310 310 311 312 312 312 311 310 310 309 309 309 308 307 306 306 306 306 306 305 306 305 305 305 305 304 304 303 303 302 301 301 300 300 299 299 299 298 298 298 298 298 298 298 297 297
284 280 278 278 278 275 281 289 296 297 298 297 296 287 285 294 294 296 296 294 294 295 298 297 297 298 295 292 295 300 302 303 304 306 307 307 309 309 308 308 310 311 312 312 312 312 311 310 310 310 309 309 309 307 306 306 305 305 305 305 305 305 304 304 304 304 304 303 302 302 301 300 300 300 300 299 299 299 298 298 297 297 297 297 297 297 296
282 279 276 275 273 277 286 289 294 296 297 296 295 287 282 291 297 297 296 293 294 296 296 296 296 294 289 290 296 300 302 303 304 305 305 306 307 309 309 310 310 310 310 310 309 309 310 308 309 309 309 309 307 306 305 305 305 304 305 305 304 303 303 303 303 303 304 303 303 302 301 300 300 300 299 299 299 299 298 297 297 297 297 296 296 296 296
281 280 278 276 280 279 286 290 292 294 295 294 288 276 277 291 293 295 295 294 295 296 297 297 296 292 289 292 296 301 302 303 305 304 305 308 309 312 310 308 309 310 310 309 307 307 307 308 309 308 308 307 306 305 305 305 304 304 305 304 303 303 302 303 303 304 304 303 303 302 301 300 300 299 299 298 298 297 297 297 296 296 296 295 295 295 296
281 280 279 282 282 287 292 292 295 294 296 292 279 274 283 293 293 296 297 295 297 297 296 297 292 296 297 298 300 301 303 304 304 306 305 307 308 306 307 307 305 308 308 307 306 307 308 308 308 308 308 307 305 305 305 305 304 305 305 304 303 302 302 302 303 303 303 303 302 302 302 300 300 299 298 298 297 297 296 296 295 295 294 294 294 294 294
278 280 279 279 282 288 293 294 292 295 289 279 278 288 295 294 295 298 298 297 298 297 297 296 296 297 299 300 300 301 303 303 305 305 305 307 305 308 306 305 305 307 305 306 307 307 307 308 308 308 307 305 304 304 304 304 305 305 304 303 302 302 302 302 302 302 302 303 303 302 302 301 299 298 298 298 297 296 295 295 294 293 293 293 292 292 293
282 281 278 277 273 284 292 292 291 294 283 285 292 293 295 297 295 295 297 298 298 298 296 297 297 298 299 300 300 301 303 303 303 306 305 306 304 305 304 305 304 304 304 305 305 306 306 306 307 308 306 305 304 304 304 305 305 304 302 302 302 301 301 301 301 302 303 302 302 302 301 301 299 297 297 297 296 296 295 294 293 292 292 292 291 291 291
277 277 275 276 284 287 294 291 284 287 290 293 294 295 294 297 296 295 295 297 298 296 296 296 297 298 298 299 300 300 301 302 305 307 305 305 306 304 304 304 304 303 304 304 305 307 306 306 307 307 306 304 304 304 304 305 305 303 302 302 301 301 301 301 301 301 301 301 302 301 301 300 298 297 296 296 295 295 294 293 291 291 291 291 290 290 289
281 280 283 288 290 291 293 293 291 294 296 297 296 296 295 295 295 298 296 296 297 299 299 297 297 296 298 298 299 300 300 301 302 303 304 304 302 303 303 303 304 303 303 304 305 306 306 305 306 306 306 304 304 304 305 304 302 302 302 301 302 301 300 300 300 300 301 300 300 300 300 299 298 296 296 296 294 294 293 292 292 290 290 290 289 289 288
290 290 291 292 291 292 292 294 296 295 295 297 297 295 294 296 298 298 297 297 299 300 300 297 297 297 298 298 299 300 300 302 302 302 301 301 302 303 303 303 303 303 304 305 304 305 305 305 305 305 305 305 303 304 305 303 303 302 302 301 300 300 300 300 299 299 299 299 299 299 299 299 298 296 296 295 293 293 292 292 291 290 289 289 288 287 287
283 279 290 289 289 292 292 294 296 296 298 296 298 297 297 296 297 298 299 299 299 298 299 297 296 297 298 298 299 299 299 301 301 301 301 302 302 302 303 303 302 303 304 303 303 304 304 304 305 305 305 305 304 304 303 303 303 302 301 300 299 299 299 299 299 299 298 297 297 298 299 298 298 297 296 295 293 292 292 291 290 290 289 288 287 287 286
282 282 288 290 292 293 293 293 293 295 295 298 297 298 298 298 299 299 299 299 298 297 296 297 296 297 298 298 299 298 299 301 300 300 301 302 302 304 304 304 304 304 303 304 303 304 304 304 304 304 304 304 304 303 303 303 303 302 300 299 299 299 299 299 298 298 297 292 295 297 297 297 295 295 296 295 293 291 291 289 288 288 288 287 287 286 285
286 289 289 289 290 291 291 292 293 296 296 297 296 296 297 297 297 299 299 299 297 296 296 296 296 296 296 296 297 297 298 300 301 300 301 302 303 304 304 304 304 304 303 303 303 303 304 304 304 304 304 304 304 303 302 303 303 301 299 298 299 299 299 299 298 298 299 298 298 297 297 297 297 295 293 292 291 292 292 293 291 289 287 287 287 287 286
281 282 286 289 283 284 288 291 293 295 297 298 297 297 296 296 296 298 296 297 298 297 296 294 295 295 296 297 298 299 300 300 299 300 301 302 302 303 304 304 304 303 303 304 303 303 304 304 304 303 304 303 304 303 303 303 303 300 299 299 300 299 299 299 298 298 299 298 298 297 297 296 296 296 292 291 294 293 292 291 289 289 288 288 288 288 286
283 288 290 292 291 290 291 293 295 297 298 298 297 297 296 296 298 298 297 296 296 295 295 294 294 294 296 297 299 299 299 299 300 300 301 301 302 302 303 303 303 303 304 303 304 303 304 304 304 303 303 304 304 303 303 303 302 301 300 299 299 299 299 300 296 298 298 298 298 298 297 297 296 294 295 294 289 289 290 289 289 288 288 288 288 287 287
290 291 292 293 291 290 293 295 296 297 298 299 297 297 297 299 299 297 297 297 294 293 294 294 295 295 296 299 299 299 301 301 300 300 300 302 302 302 303 303 302 302 303 303 303 303 305 305 304 303 302 303 303 303 302 302 301 301 301 300 300 300 299 300 298 298 298 298 298 298 297 296 296 294 293 292 293 291 289 289 289 289 288 288 288 287 287
288 293 293 292 293 294 296 297 298 298 299 299 297 296 296 297 298 297 296 296 296 294 292 293 294 297 296 297 299 300 300 300 299 298 298 299 300 302 302 302 302 302 302 303 304 304 304 304 303 302 301 302 302 301 301 302 303 302 301 300 300 300 300 300 296 298 298 298 298 298 297 295 295 294 292 291 291 290 292 290 289 289 288 288 288 287 287
292 292 293 294 295 296 296 296 296 297 298 298 297 297 297 298 297 297 296 296 296 295 294 294 294 296 298 298 299 302 299 298 297 298 300 301 301 302 301 302 302 303 303 303 303 303 303 302 301 301 301 302 302 302 302 303 303 302 301 301 300 300 298 298 299 299 298 299 298 298 296 295 295 294 293 294 292 291 290 290 290 290 289 289 288 288 287
292 295 294 292 292 293 295 293 292 298 298 299 297 296 298 300 296 299 299 298 298 297 294 295 296 297 299 299 299 298 298 298 299 300 300 300 300 301 302 303 303 303 302 303 303 302 300 302 302 301 301 302 303 304 303 303 303 302 301 301 300 292 287 293 299 299 299 298 298 297 295 295 294 294 294 293 293 292 290 288 287 287 288 288 289 288 287
294 294 293 289 289 290 294 297 298 298 298 297 296 297 299 299 299 296 296 298 298 296 295 296 295 297 297 299 297 297 298 298 298 299 300 301 302 303 303 303 303 302 301 301 301 302 301 301 302 302 302 303 304 304 303 303 302 302 301 300 300 300 299 297 299 300 299 299 298 297 296 295 295 295 293 293 291 292 292 291 288 288 287 288 288 288 287
293 294 295 294 291 292 296 298 298 298 297 297 298 298 298 298 297 297 297 297 296 296 295 295 297 299 298 299 298 297 297 298 298 299 300 301 302 303 303 303 303 303 303 301 302 302 302 301 301 301 301 303 304 303 303 302 303 302 301 300 300 300 300 300 300 300 300 300 300 297 292 293 294 295 294 293 292 292 293 291 289 288 288 288 288 288 288
294 295 296 294 295 296 294 294 295 295 295 296 296 297 298 297 296 296 296 299 297 295 295 296 297 298 300 298 297 297 297 297 298 299 300 301 302 303 303 303 303 302 302 301 301 301 301 302 301 301 302 303 303 303 303 303 302 302 301 301 300 299 299 299 299 298 298 298 297 292 294 295 296 296 294 293 293 292 291 289 289 288 287 287 286 286 285
294 296 295 295 294 295 293 293 294 295 295 296 296 297 297 297 296 296 297 295 296 295 293 295 297 299 299 298 298 299 299 299 299 300 300 301 301 302 301 301 299 297 298 299 301 301 301 301 301 301 303 303 303 303 303 302 301 301 301 300 301 291 287 289 291 296 297 296 296 296 296 295 295 295 292 292 291 291 291 290 289 288 287 287 286 286 286
292 291 291 291 292 293 292 293 293 294 294 296 295 295 295 295 295 295 292 294 294 293 294 296 297 298 298 299 299 299 299 299 299 299 300 300 300 301 300 299 298 295 299 298 298 299 300 301 301 302 303 302 303 302 301 299 299 299 298 294 297 299 293 288 292 294 294 294 296 297 295 294 294 294 292 291 291 291 290 290 289 289 288 287 286 286 287
292 290 290 290 292 291 291 292 292 292 293 292 290 292 296 297 298 294 294 296 296 296 296 296 298 298 298 298 299 298 299 298 299 299 299 299 300 300 300 300 300 299 298 298 299 299 299 299 301 302 303 303 304 302 299 297 299 300 298 298 298 298 293 293 292 295 295 296 297 297 295 295 295 295 292 291 292 291 291 290 289 289 289 288 288 288 287
289 289 291 291 291 290 289 290 291 291 291 293 295 295 296 297 292 296 295 296 295 296 296 297 298 298 298 298 298 297 297 297 296 297 297 298 298 299 300 300 300 299 299 299 299 299 299 300 302 302 303 303 303 303 303 303 302 300 300 300 299 299 300 299 298 297 296 295 296 297 297 293 295 293 292 292 292 291 291 290 290 289 289 289 290 290 288
293 293 293 293 293 292 292 290 290 290 290 292 293 295 297 295 296 296 296 295 294 295 297 299 298 298 298 297 297 297 296 296 296 296 297 296 296 297 298 298 298 298 298 299 300 299 301 301 301 302 302 302 302 300 299 300 302 302 301 300 298 298 299 297 298 297 295 296 296 297 295 294 292 291 292 293 292 292 292 291 291 290 289 288 288 289 289
294 293 292 291 292 291 291 290 290 290 291 292 294 294 294 295 295 296 296 296 297 297 297 297 298 299 296 295 293 293 293 293 294 294 294 294 295 296 296 296 296 295 296 297 299 300 300 300 291 288 301 301 301 300 299 299 301 302 302 300 300 300 299 298 298 297 296 296 295 295 295 292 291 293 293 293 292 292 291 291 290 291 290 290 289 288 288
293 292 291 291 291 290 289 289 289 289 289 290 292 292 292 293 294 294 295 296 296 297 298 298 298 296 295 294 293 292 292 292 292 293 294 294 294 294 295 295 294 294 294 294 296 298 299 299 291 290 298 300 300 300 300 289 300 300 300 302 301 299 298 298 298 297 297 297 296 296 294 294 295 294 294 294 292 292 292 292 291 291 290 290 290 289 288
293 293 292 291 290 290 288 288 288 288 289 289 290 290 291 292 292 292 293 292 295 297 297 297 296 295 294 293 293 293 294 294 294 294 295 295 295 295 295 295 294 293 292 292 297 298 298 296 291 295 299 299 300 301 298 289 289 299 301 300 300 299 299 298 297 297 296 298 295 298 297 295 294 295 293 295 295 293 293 292 292 291 291 291 291 290 289
292 293 292 292 291 290 289 288 288 287 287 287 288 289 290 290 291 292 291 292 292 294 296 294 294 294 293 293 293 293 293 294 294 294 294 294 294 293 292 294 295 296 296 296 297 297 297 296 299 299 298 298 299 300 295 291 289 299 300 301 301 300 299 299 299 298 297 298 297 296 297 295 294 294 294 295 295 293 292 292 293 293 292 292 291 291 290
292 292 291 291 290 290 289 288 287 287 287 287 287 287 289 289 290 291 291 291 292 292 293 294 293 292 292 293 293 293 293 294 295 295 295 294 294 293 293 294 296 297 296 292 296 297 293 290 294 297 297 298 298 298 296 293 291 297 300 300 299 299 299 299 299 298 298 298 297 292 297 295 293 294 294 294 295 294 294 294 294 294 294 293 293 292 291
292 291 291 290 290 290 289 288 287 287 287 287 287 288 289 290 290 290 290 291 292 292 292 292 292 292 292 293 293 294 295 294 295 295 295 294 293 292 291 290 294 296 295 296 296 295 294 293 295 295 295 295 297 293 295 291 296 300 300 299 299 299 299 298 298 298 297 297 296 298 297 296 296 294 293 294 295 295 296 295 295 295 295 295 294 294 293
292 292 291 291 290 290 290 290 289 288 287 288 288 288 289 289 289 289 290 291 292 292 292 292 289 292 293 293 294 294 294 295 295 294 295 293 293 292 290 291 293 293 288 292 293 293 295 294 293 290 290 290 293 289 286 293 298 298 299 298 298 297 298 297 297 297 297 297 297 298 297 297 296 295 295 295 295 295 296 296 296 295 296 296 295 295 294
292 292 291 291 291 291 290 290 289 288 288 288 288 288 289 290 289 289 290 291 291 292 292 292 291 291 293 293 292 293 293 294 294 294 293 293 293 293 291 292 293 292 287 292 294 295 293 292 291 290 286 287 289 286 288 297 297 297 298 298 297 297 297 297 297 297 297 297 297 296 296 295 295 294 294 295 295 296 295 296 296 296 296 297 297 296 296
291 291 291 291 291 291 291 290 290 289 288 287 289 289 289 289 289 289 289 289 290 290 291 291 291 291 291 292 292 292 292 293 293 293 293 292 292 291 291 290 290 290 287 290 292 293 291 289 288 286 285 285 286 286 293 297 297 297 297 297 297 297 296 297 297 296 296 296 295 296 295 293 293 293 293 292 292 294 293 294 296 296 296 297 297 297 297
291 291 292 291 292 291 291 290 290 289 290 290 290 290 289 289 288 289 288 288 288 288 288 288 288 289 290 291 291 292 292 293 293 292 291 290 289 288 289 287 288 288 288 287 291 291 290 288 286 284 285 285 286 286 296 296 296 296 296 297 297 296 296 296 295 295 295 295 294 294 294 294 293 293 292 292 290 290 291 291 292 295 295 296 296 295 296
292 292 292 289 291 291 291 291 291 291 290 289 288 288 289 289 288 288 289 288 287 287 287 287 287 288 289 289 290 292 293 293 293 294 293 292 289 289 289 286 287 286 286 287 290 290 289 285 284 285 285 286 286 293 296 295 295 295 295 295 295 293 294 295 294 294 294 293 293 293 293 293 293 293 292 292 291 290 289 289 290 292 293 294 295 295 295
292 291 291 292 291 291 292 292 291 291 290 289 288 288 288 289 289 289 289 289 288 288 288 288 288 288 289 289 289 288 289 291 292 292 293 294 292 290 287 285 285 285 286 290 288 288 287 286 285 285 285 285 286 293 294 294 294 293 293 293 292 292 292 292 292 293 293 293 292 291 290 290 290 292 291 290 291 290 290 289 289 289 290 290 292 292 292
291 291 291 291 291 291 291 291 290 289 289 288 289 288 289 290 290 290 290 289 289 289 290 290 289 289 290 290 291 291 290 289 288 289 291 291 291 291 290 288 286 284 286 287 287 286 284 285 284 285 285 286 291 292 292 292 291 291 291 291 291 290 290 289 290 291 291 292 291 292 291 291 290 290 289 289 289 289 290 289 289 288 289 289 289 290 290
291 291 291 291 291 291 290 290 289 289 289 289 289 289 290 290 289 289 289 289 289 289 289 289 290 290 291 289 290 290 290 290 288 287 290 290 290 289 289 287 285 285 287 288 289 289 285 284 285 285 285 287 290 290 290 290 289 288 288 289 289 289 287 287 288 289 289 290 291 290 290 290 291 290 289 289 288 288 288 288 288 288 287 288 288 288 289
291 291 291 290 290 290 290 289 289 289 289 290 289 289 290 289 287 286 287 288 287 287 289 288 288 288 289 290 290 290 290 289 288 289 289 289 289 288 287 288 287 285 285 287 288 288 286 285 285 285 286 288 288 287 287 287 287 286 287 287 287 287 286 285 285 286 287 288 289 288 288 288 288 287 287 288 288 288 288 287 287 286 285 286 286 287 287
290 290 290 290 291 291 291 290 290 290 290 289 289 289 289 288 286 286 286 286 287 286 286 287 287 287 288 288 288 289 289 289 288 286 288 288 288 286 285 286 287 285 286 286 287 287 287 287 286 285 285 286 286 286 285 285 285 285 284 286 286 287 285 284 285 286 286 286 287 287 286 286 286 286 286 286 286 286 287 287 287 287 286 285 285 285 286
291 291 291 291 290 290 291 290 290 289 288 288 288 287 287 287 287 286 285 284 285 285 285 285 285 287 287 286 286 287 287 287 287 287 287 287 286 287 286 285 286 286 286 286 286 287 286 286 285 284 284 284 284 284 284 284 284 283 283 283 284 285 284 283 282 283 284 284 284 284 284 283 283 284 284 284 284 285 285 285 285 285 285 285 284 284 284
Wind_Speed
20 21 21 19 18 18 19 22 21 23 22 21 18 15 20 19 15 18 15 18 16 17 22 24 24 23 22 21 21 21 21 19 18 17 19 17 14 19 18 14 17 18 17 16 15 14 13 10 12 12 11 11 11 11 11 11 11 11 11 10 10 9 8 8 7 6 5 5 5 5 6 7 7 7 9 10 11 12 12 12 12 14 14 15 15 16 16
21 22 21 19 20 18 19 21 24 25 24 22 22 23 22 22 18 17 17 18 19 20 22 25 25 23 22 21 20 20 21 22 19 19 22 17 19 18 17 18 21 18 17 15 14 14 12 13 13 13 11 11 12 12 12 11 11 11 11 10 10 9 9 8 7 6 6 6 6 6 6 7 6 8 10 11 12 12 13 13 14 14 14 15 15 15 17
17 20 17 18 19 19 21 22 25 25 22 22 22 22 16 20 15 15 17 17 17 19 22 23 24 22 19 19 22 24 23 22 22 20 20 20 19 19 18 12 20 18 18 17 16 15 13 13 14 12 10 11 11 11 12 12 12 12 11 10 9 8 8 7 6 6 5 5 5 6 5 6 7 10 11 11 11 12 13 13 14 14 14 15 15 15 16
16 17 16 16 19 20 21 24 25 21 19 16 14 13 9 11 14 14 12 15 16 16 20 20 20 21 22 22 22 22 21 22 23 23 23 23 20 22 21 10 13 21 9 16 15 13 13 13 13 11 10 10 11 11 12 12 12 11 10 10 9 8 7 6 6 6 5 5 5 5 5 9 9 10 10 11 12 13 13 14 13 14 15 15 15 15 15
16 19 16 17 13 13 17 23 16 13 20 20 20 20 21 19 16 15 17 17 16 17 17 19 19 21 23 23 21 20 21 22 24 25 25 24 22 23 24 15 16 15 19 16 11 12 14 13 12 12 11 10 10 11 12 11 11 11 10 9 8 8 6 6 5 4 4 5 5 5 7 9 8 9 11 12 12 13 13 14 14 15 16 16 16 16 17
14 19 16 13 11 16 20 9 10 14 14 14 16 14 14 18 16 14 15 16 19 20 19 20 21 22 22 21 21 20 16 16 18 24 27 23 22 22 22 22 17 15 16 11 12 12 11 11 11 11 11 10 9 9 11 11 11 10 10 9 7 7 6 5 4 4 5 4 5 6 7 8 9 11 12 13 12 11 11 13 14 15 16 17 17 17 17
15 13 12 13 17 19 11 13 15 16 18 18 20 19 19 18 17 16 15 20 22 22 20 20 22 19 20 20 20 20 23 18 12 13 22 17 11 11 13 10 13 18 15 12 12 11 10 8 8 7 8 8 9 10 11 10 10 10 9 8 7 6 5 4 3 4 5 5 6 6 6 8 10 12 13 13 13 11 11 13 15 15 15 16 16 16 17
11 13 12 15 18 12 14 15 14 15 16 16 18 18 18 19 20 20 19 18 18 16 14 13 13 16 18 19 20 21 20 21 22 10 15 20 14 6 7 12 18 15 12 12 12 11 10 9 9 8 8 9 10 10 11 10 10 9 8 7 6 6 6 5 4 4 4 5 6 6 7 8 11 12 13 13 12 12 13 13 14 14 14 14 15 16 17
15 14 16 18 16 19 19 14 9 6 8 6 6 11 11 14 11 13 16 16 14 12 13 13 13 14 15 16 18 19 20 20 19 9 15 20 8 8 12 14 14 11 11 11 10 9 9 9 9 8 8 9 10 10 11 10 10 9 8 7 6 5 4 4 4 4 5 6 6 7 8 9 12 13 13 12 11 11 13 14 15 15 15 15 15 16 18
14 15 16 13 14 15 11 12 2 2 3 4 0 3 11 13 16 7 7 7 10 14 12 12 13 14 14 16 15 13 14 16 18 12 18 16 9 9 14 13 12 10 10 10 10 8 8 6 5 5 7 9 10 11 11 10 10 9 9 7 6 5 3 3 3 4 5 6 7 8 8 10 12 12 12 11 12 11 13 15 16 15 15 15 16 16 17
13 15 15 14 14 12 10 6 5 3 4 7 6 5 12 6 6 3 3 8 9 10 11 12 13 11 12 14 13 11 13 15 18 16 19 11 11 17 13 13 12 12 10 9 10 9 7 7 7 7 8 11 11 11 11 10 9 8 7 5 4 2 2 2 3 3 4 6 7 8 9 10 10 12 12 12 11 11 13 14 15 15 14 15 16 16 18
14 14 14 15 10 11 9 12 1 3 3 7 4 6 6 7 6 5 7 8 9 10 10 10 10 11 13 13 12 14 16 18 18 16 12 7 7 9 12 13 13 11 10 7 6 7 6 6 6 8 10 11 11 11 10 9 8 6 5 4 2 1 2 2 2 3 4 6 7 7 8 9 10 11 11 11 11 12 14 14 14 14 14 15 18 18 17
15 16 13 11 10 9 13 7 4 1 4 5 7 12 7 6 10 10 5 9 9 8 10 8 10 10 13 16 18 15 14 10 10 6 6 10 8 10 10 9 8 8 8 7 7 7 6 6 7 8 10 11 11 10 9 8 7 5 5 4 2 2 0 2 3 4 4 5 7 7 7 8 8 9 10 11 11 12 13 13 14 15 17 17 17 18 17
13 14 15 12 12 3 2 9 13 5 4 9 13 7 11 14 13 10 10 10 9 9 11 10 11 14 17 19 18 15 10 7 8 11 4 6 4 5 10 9 6 6 5 6 5 4 5 6 8 9 11 11 11 10 9 8 7 5 5 3 2 2 2 2 3 3 5 5 5 6 7 7 8 9 9 10 11 13 12 13 16 16 16 15 16 17 16
9 9 13 11 12 2 1 1 8 3 4 6 7 11 14 14 14 15 13 11 9 10 11 12 15 17 18 18 17 14 12 9 11 8 10 7 3 4 6 7 7 5 6 7 7 7 6 7 8 10 12 13 11 10 8 8 5 5 4 3 3 2 1 2 3 4 5 5 5 5 6 7 9 9 8 8 12 12 13 14 15 16 16 15 16 16 17
12 12 11 9 5 2 5 8 8 5 7 11 13 12 12 11 11 13 12 12 10 9 11 13 15 16 17 18 16 12 11 10 8 5 3 4 9 7 10 8 8 7 5 6 7 6 6 7 9 11 12 12 11 10 8 6 5 4 4 3 2 2 2 3 3 4 5 5 5 6 7 8 8 9 9 8 11 12 12 12 13 14 14 14 15 17 18
6 8 9 10 13 14 13 13 15 15 12 11 11 7 10 10 9 9 10 12 13 11 13 14 14 15 15 17 15 9 8 10 11 9 10 12 10 9 6 6 6 5 5 5 5 7 5 8 10 11 12 11 11 10 8 7 6 6 5 4 3 2 2 2 2 4 4 5 6 6 7 8 8 8 10 10 11 11 12 12 13 13 14 14 15 15 15
11 15 16 14 15 16 17 15 13 13 13 7 4 7 10 10 8 8 8 12 13 12 12 13 14 13 14 15 12 7 6 8 11 14 12 7 6 6 6 5 6 4 4 5 5 6 7 9 10 11 11 11 11 9 8 7 6 5 4 4 3 1 2 3 3 5 5 7 6 7 9 8 7 7 8 9 10 11 12 11 12 13 14 14 14 14 13
11 11 8 12 13 13 14 15 15 10 10 1 3 4 4 9 13 10 11 11 12 12 13 14 14 16 14 14 8 4 6 12 14 12 8 8 7 7 6 6 5 4 4 6 6 6 7 8 10 11 11 10 10 8 7 6 6 5 4 3 2 1 1 3 3 4 6 6 7 8 8 7 6 6 8 7 8 8 8 12 12 13 12 11 12 14 13
11 13 15 15 17 18 18 16 13 3 5 4 3 5 10 13 10 9 9 11 10 10 12 12 12 13 13 8 4 7 10 11 9 9 7 7 6 6 6 6 5 5 3 7 7 8 8 7 10 10 11 10 11 9 7 7 6 5 3 3 2 3 1 2 4 5 5 3 6 7 8 8 6 5 8 7 5 6 7 5 9 11 12 12 13 13 14
14 17 17 18 20 19 20 17 7 4 7 6 7 5 9 15 13 9 9 8 9 12 12 12 12 9 5 2 4 9 13 13 9 9 5 6 5 6 7 5 3 4 6 6 6 6 7 8 9 11 10 9 10 12 9 6 6 5 4 4 2 2 2 3 5 5 5 6 6 7 8 8 7 6 4 3 3 5 3 4 5 8 11 12 12 11 11
12 12 13 11 10 7 9 8 6 2 6 6 8 8 9 12 13 8 10 10 10 11 7 7 8 4 4 7 8 9 6 8 8 7 6 5 7 8 4 4 5 5 3 2 4 7 8 9 9 11 11 10 9 9 7 7 6 5 5 4 3 2 2 3 5 6 6 6 7 7 8 9 8 7 5 9 1 2 5 6 7 10 8 9 11 11 11
10 11 13 10 11 14 13 11 10 11 12 9 11 11 10 9 11 7 9 10 11 9 5 6 9 11 10 12 11 8 8 6 2 3 3 4 4 3 4 6 6 2 3 6 7 8 10 10 10 10 11 10 9 10 8 7 6 6 5 3 1 2 2 3 3 5 6 6 7 7 8 9 9 8 8 2 12 9 1 6 8 9 10 12 14 15 13
20 18 17 14 13 13 12 12 13 12 11 9 10 11 13 10 7 7 7 7 7 7 5 7 9 10 12 12 10 9 9 9 4 4 4 3 3 2 5 4 2 4 5 7 8 7 7 9 10 10 10 8 9 8 7 7 5 4 2 1 1 2 2 4 1 2 6 6 7 7 8 9 9 9 7 6 9 6 7 8 9 9 9 11 13 15 17
15 13 14 14 15 16 11 12 11 11 8 5 6 7 11 12 8 7 6 5 4 2 5 7 10 10 12 13 11 9 6 3 2 3 4 2 4 1 4 4 4 5 6 7 9 9 9 9 11 12 11 10 10 10 8 7 6 4 3 2 1 2 4 3 3 3 5 6 6 7 8 9 9 9 8 6 8 10 10 8 10 10 9 10 14 15 16
14 13 12 15 16 13 12 12 13 7 3 4 5 8 15 11 2 5 3 3 3 4 7 8 9 11 12 12 9 8 6 4 5 6 2 2 8 5 4 5 5 7 8 9 9 9 10 12 12 11 10 10 10 9 9 7 5 4 4 3 2 4 5 6 6 4 5 6 6 6 7 8 9 9 9 7 8 10 10 10 10 9 7 11 15 15 15
11 10 11 14 14 13 11 10 10 7 8 6 6 12 14 8 3 2 4 4 4 6 7 8 11 11 12 12 11 5 4 5 3 2 4 3 5 7 7 7 9 10 10 10 9 9 10 10 11 10 9 9 8 8 7 5 5 5 4 2 3 6 4 3 5 6 7 6 6 6 7 9 9 11 9 8 8 10 7 8 11 12 11 12 13 14 13
10 12 14 14 13 12 12 9 8 8 9 8 9 12 10 6 6 6 6 5 4 3 4 8 9 10 12 9 7 5 4 5 4 4 5 7 8 8 10 11 11 12 11 10 9 9 9 8 8 8 8 7 6 6 6 5 5 4 3 2 2 2 4 8 5 7 7 6 6 6 7 8 8 9 9 9 8 9 8 7 8 10 10 10 10 12 16
8 9 6 3 5 12 13 8 9 10 10 9 8 9 9 8 6 5 6 5 6 6 5 8 10 10 11 7 3 6 7 6 7 7 7 8 8 9 10 10 10 11 11 10 8 7 6 5 5 6 6 7 6 6 5 5 4 4 3 3 4 2 4 5 6 6 7 8 7 6 6 5 8 9 9 9 9 8 8 7 6 8 10 11 12 10 12
8 7 8 7 5 9 9 9 9 9 8 8 9 9 8 7 7 6 5 7 10 8 9 9 9 11 8 5 5 7 8 9 9 9 9 8 8 8 9 9 10 11 11 11 9 6 5 4 4 4 3 3 5 5 5 4 4 4 4 4 4 4 5 8 7 7 8 8 8 6 5 8 9 9 8 9 9 8 6 5 5 7 9 10 9 12 14
9 9 9 9 7 5 7 7 8 7 7 7 7 8 8 7 7 7 4 8 7 8 4 8 9 7 7 7 6 8 8 9 9 10 11 12 12 11 11 11 10 10 9 10 10 9 7 6 6 5 3 3 3 1 2 2 3 3 4 4 4 6 5 3 3 6 9 9 9 8 6 7 8 10 6 7 6 7 6 5 4 5 4 7 9 11 12
11 12 6 7 5 4 6 6 8 8 8 8 8 8 8 7 6 2 6 6 8 10 11 8 7 8 7 7 8 9 9 8 10 11 12 12 13 13 13 14 14 13 11 11 10 10 8 7 7 7 7 6 6 7 7 6 5 4 4 6 8 5 4 2 4 5 8 9 9 9 7 5 5 6 6 7 6 6 6 6 5 4 5 6 8 10 11
5 3 7 7 7 6 7 8 8 9 10 7 4 6 7 8 3 7 7 5 6 3 5 5 4 6 9 9 9 9 9 10 11 12 13 14 14 13 13 12 13 13 12 11 10 10 9 9 8 7 7 7 8 7 5 3 3 2 4 5 5 4 4 1 2 4 7 9 9 8 4 6 6 7 6 7 7 5 5 6 5 5 4 4 5 6 8
8 9 8 9 8 8 9 9 8 7 8 8 7 6 5 3 5 9 11 7 7 4 4 7 7 7 10 10 10 10 11 12 11 11 13 14 13 13 13 13 13 14 13 12 11 10 9 9 8 8 8 8 7 6 4 3 2 4 4 6 5 7 7 4 2 4 6 7 8 9 9 4 6 5 7 7 5 6 5 6 5 4 4 3 3 3 6
9 9 10 9 9 9 9 7 7 6 7 7 6 4 3 7 10 11 9 9 8 6 6 8 7 8 9 10 11 11 11 12 12 13 13 13 13 13 13 14 14 13 14 13 12 11 11 11 10 9 10 9 9 8 7 6 5 3 3 3 4 5 5 5 5 4 5 6 7 7 5 4 4 6 7 5 6 7 6 5 7 6 4 4 3 4 4
8 10 10 10 10 11 9 8 8 7 7 7 8 10 10 11 11 10 10 9 7 7 8 8 8 5 12 13 13 13 13 12 12 13 13 13 12 12 13 14 14 14 13 14 13 12 11 10 10 8 5 9 8 10 9 7 4 1 0 2 1 3 3 4 4 4 4 5 7 7 4 4 4 5 6 7 6 7 6 5 5 4 4 4 4 3 3
9 10 10 10 10 11 11 10 8 8 8 10 9 11 10 12 14 15 13 8 9 10 7 7 6 10 14 14 15 14 13 12 12 12 12 12 13 14 14 14 13 13 12 12 11 11 11 10 10 9 8 8 10 10 9 8 6 6 5 2 2 3 4 5 5 4 4 6 7 4 3 5 3 5 6 6 4 5 6 6 7 5 4 3 3 3 3
9 10 11 10 9 10 10 10 10 9 9 12 13 12 12 12 13 14 14 13 10 7 6 6 10 10 13 14 15 15 14 14 14 15 14 15 14 15 15 13 12 11 11 11 11 12 13 13 10 10 10 9 9 10 11 15 17 7 2 4 4 3 1 2 2 2 3 5 6 5 2 3 3 3 4 8 7 6 4 5 6 4 4 4 4 3 3
11 10 10 10 10 10 11 11 12 11 10 10 11 13 13 14 14 13 13 13 13 9 8 13 13 14 15 16 15 15 15 14 15 15 15 15 15 15 14 14 13 13 11 10 12 12 13 14 12 11 11 10 11 10 13 15 19 7 7 5 6 5 5 3 2 1 3 4 4 5 5 3 4 3 4 5 7 8 6 4 8 8 5 4 4 4 3
10 11 11 10 10 11 11 13 12 11 12 14 15 13 12 13 13 13 13 13 13 14 15 13 11 12 14 15 14 13 13 13 12 13 13 13 13 14 13 14 14 13 14 11 11 11 13 14 13 12 12 12 11 11 12 16 17 5 8 7 7 6 6 6 6 5 4 3 1 5 2 5 3 4 5 6 8 9 9 9 9 10 11 8 6 5 6
11 11 11 11 12 12 12 12 12 13 14 14 15 14 14 14 14 15 16 14 13 15 16 14 11 11 12 12 13 13 13 12 12 12 12 11 12 11 10 11 12 12 14 10 10 11 12 13 12 12 11 12 11 13 11 17 12 7 7 8 8 8 8 8 7 6 6 5 6 5 4 2 2 3 5 5 8 8 8 9 9 10 11 11 9 8 6
13 15 15 14 13 13 14 13 14 16 15 14 14 15 15 15 14 13 13 12 13 13 14 15 15 11 10 11 11 12 12 13 14 14 14 13 11 8 9 10 11 12 18 14 10 11 11 12 12 11 12 12 11 16 19 12 7 8 7 8 8 8 8 8 8 8 7 6 6 6 7 7 5 3 5 5 6 7 9 9 9 9 10 10 10 9 8
14 15 15 15 15 15 15 15 15 15 15 14 13 13 13 14 14 13 14 15 14 13 13 13 14 16 14 12 11 11 10 11 12 13 13 14 14 13 10 9 9 11 16 11 11 9 10 10 10 10 15 13 11 17 18 8 9 8 8 8 8 8 9 9 9 8 8 8 8 7 7 6 6 6 7 7 8 8 9 9 9 9 9 10 10 10 9
14 14 14 15 15 15 15 15 16 16 16 14 13 13 14 14 13 13 13 13 13 12 12 12 13 12 12 11 10 9 8 8 8 7 7 8 10 12 12 9 9 9 13 10 9 9 9 9 10 15 17 18 18 19 11 8 9 9 8 8 8 8 9 9 9 9 9 9 8 8 8 8 6 6 7 7 7 7 7 7 8 9 10 10 10 10 9
13 13 14 15 16 14 14 14 15 15 14 12 12 12 11 10 9 8 9 9 10 9 9 10 11 10 9 9 8 8 8 7 8 6 7 7 7 8 10 10 9 8 9 11 8 9 9 11 14 18 16 18 18 19 8 9 9 9 9 9 9 9 9 9 9 9 9 9 9 9 8 7 6 6 6 7 8 7 8 8 8 9 7 9 9 9 9
13 13 13 14 14 14 13 13 13 12 12 13 13 12 11 10 9 8 8 9 10 10 9 9 9 10 9 8 8 7 7 8 9 8 8 7 7 6 8 9 8 9 12 10 8 8 9 12 16 16 17 17 18 11 9 9 9 9 9 9 9 9 9 9 9 9 9 9 9 8 9 8 6 6 6 5 6 6 7 8 9 8 8 9 9 10 9
11 11 11 12 12 13 13 12 11 11 11 11 11 10 10 10 9 8 9 9 8 8 8 8 8 8 8 8 7 7 6 5 6 7 7 6 6 7 8 9 10 11 11 6 8 8 9 11 14 16 17 17 15 8 9 9 9 9 9 9 9 9 9 8 8 9 9 8 9 8 8 8 8 8 8 7 7 7 7 7 7 8 8 9 9 10 9
10 11 10 10 11 10 11 10 10 10 10 10 9 9 9 9 9 8 8 7 7 7 6 6 6 6 6 6 7 7 7 6 4 6 7 6 6 6 7 8 9 12 11 4 7 11 14 13 14 16 16 14 9 9 9 9 9 9 9 9 9 9 8 8 8 8 8 9 9 9 7 6 8 8 7 8 7 8 8 8 8 8 8 8 8 8 8
9 9 9 9 9 9 9 9 8 8 8 8 8 7 8 8 8 7 7 6 5 5 6 5 5 5 5 6 6 6 6 7 6 4 6 6 6 7 7 8 9 10 8 7 8 6 11 11 13 15 15 11 9 9 9 9 9 9 8 8 7 8 8 8 8 8 7 9 9 9 9 8 9 8 8 8 8 8 9 8 8 9 9 8 8 9 8
8 7 7 7 7 7 7 7 7 7 6 6 6 6 6 6 6 6 6 5 5 5 4 5 5 5 5 5 5 5 5 6 6 6 6 7 7 7 7 7 8 9 9 8 8 7 7 10 12 13 12 8 9 8 9 9 8 8 8 9 9 7 9 9 9 10 9 9 9 9 8 8 8 9 9 8 8 8 8 8 8 9 11 9 8 9 9
6 6 6 7 7 8 9 8 7 6 6 7 6 6 5 6 6 6 6 6 4 5 4 4 4 5 5 5 5 5 5 5 6 7 6 6 6 7 9 7 7 9 8 7 6 6 7 7 8 10 9 8 7 8 7 8 7 7 8 7 8 8 8 9 8 8 8 9 7 8 8 8 9 9 8 8 8 8 9 8 9 9 9 9 9 9 9
7 6 6 7 6 6 6 6 6 6 6 6 6 6 6 5 4 5 6 7 5 5 5 4 4 5 4 4 4 4 4 5 6 6 6 7 6 5 6 7 6 7 7 7 6 7 7 7 8 10 10 8 7 7 7 9 8 7 7 8 8 7 9 9 8 8 8 9 8 8 9 9 8 8 8 8 9 9 9 9 9 9 9 9 8 9 8
Wind_Direction
265 269 276 281 281 278 277 275 274 272 272 270 268 264 267 274 271 275 289 291 285 282 281 284 284 285 283 284 285 285 284 278 273 275 282 287 296 295 254 236 240 217 216 212 208 205 221 200 191 187 181 172 158 160 165 167 165 168 168 176 179 184 188 196 201 206 211 222 233 239 243 250 265 279 289 290 287 286 283 280 278 276 275 274 271 269 268
268 266 268 272 276 278 276 272 270 267 265 264 264 267 267 266 267 272 275 278 278 277 277 278 281 283 283 284 285 280 275 269 258 265 267 264 274 280 298 270 232 221 219 215 207 218 204 189 185 182 179 170 166 164 166 164 165 166 169 175 181 185 190 194 197 206 213 216 225 237 247 260 277 286 285 285 285 286 285 284 283 283 281 279 277 275 271
271 270 273 272 267 267 267 267 266 263 264 269 270 270 270 274 274 269 268 273 275 272 271 274 277 279 282 282 276 273 268 267 265 255 247 243 243 257 265 281 279 241 219 215 221 215 181 188 184 188 181 175 174 169 164 164 168 169 171 175 182 186 191 194 194 204 219 230 236 243 256 282 288 286 282 284 286 285 285 285 285 286 283 281 278 276 275
269 266 266 267 268 268 267 266 261 262 267 267 264 262 263 261 262 268 270 262 263 268 271 274 275 278 278 275 274 274 269 264 263 259 255 251 247 251 247 246 272 266 246 245 214 187 174 189 190 188 180 186 171 176 166 169 169 171 171 175 180 182 192 190 198 213 223 230 238 253 271 282 281 280 284 284 284 286 289 292 291 290 287 283 281 279 275
266 271 272 274 282 282 273 257 259 270 262 258 262 263 260 255 254 254 258 258 260 270 277 278 279 279 280 277 276 276 276 274 267 259 252 249 238 239 241 230 237 258 244 215 191 174 186 194 188 186 180 194 179 180 169 173 168 173 168 175 180 185 188 196 202 214 231 242 255 266 275 291 294 287 283 282 285 288 291 293 293 288 286 285 281 280 278
269 273 275 278 269 257 251 274 269 254 264 258 256 256 257 257 252 256 258 266 268 270 274 276 279 280 277 281 282 284 291 292 291 288 265 255 244 231 234 228 222 226 231 189 187 182 184 174 185 186 185 193 177 176 170 175 169 168 173 177 187 182 185 195 205 216 234 246 255 265 284 290 282 278 280 282 286 290 294 292 291 290 288 286 284 282 281
265 270 270 263 250 249 270 276 268 268 266 272 271 267 261 262 261 263 269 272 277 277 281 289 292 303 313 308 309 308 295 282 273 286 288 276 277 273 246 236 239 217 195 183 161 162 170 165 169 169 164 177 169 174 173 174 166 174 181 182 184 181 187 193 211 225 239 248 263 285 291 287 281 281 282 286 288 295 297 293 291 289 289 288 285 284 282
267 264 257 257 249 263 271 273 281 282 279 273 276 271 269 272 274 275 275 277 278 283 292 295 302 311 311 302 287 280 277 286 281 256 273 263 246 247 268 234 221 191 174 151 149 159 179 163 164 183 183 178 179 179 174 170 171 177 184 183 182 183 181 195 217 229 246 255 269 274 277 280 282 282 285 288 296 296 293 292 291 290 289 286 283 281 279
256 258 259 261 284 281 272 272 270 273 283 292 292 285 280 278 285 281 277 284 293 306 313 318 323 321 306 290 282 273 273 270 280 252 250 267 262 235 215 202 165 156 151 157 161 165 164 177 183 191 186 184 184 178 172 173 177 177 182 184 190 162 184 215 215 238 253 265 271 271 276 281 283 287 290 294 298 297 294 293 293 293 293 291 291 289 288
255 262 267 266 259 258 258 270 92 30 10 356 151 292 282 268 265 293 342 332 310 303 311 319 320 310 300 288 282 289 301 294 265 266 274 256 248 258 201 167 142 150 155 154 144 164 169 178 188 191 184 180 182 175 176 178 179 179 179 189 185 176 188 200 229 248 265 273 275 280 282 282 287 291 293 294 295 298 297 298 298 297 297 294 293 292 290
253 253 258 257 262 265 281 312 129 351 60 335 348 295 276 314 355 357 323 311 302 303 311 315 315 305 293 287 297 317 316 314 319 285 261 283 247 220 175 152 152 165 160 161 158 159 170 175 184 205 194 178 182 175 180 182 181 190 194 192 162 165 173 233 263 272 282 284 285 289 288 291 292 291 293 295 301 300 299 299 298 299 298 298 297 295 293
253 263 260 265 262 279 285 290 275 130 200 168 214 276 279 48 309 292 332 316 310 311 311 309 301 295 289 297 308 317 316 313 301 278 261 273 227 163 179 175 182 159 146 153 163 160 170 189 186 199 186 176 179 176 180 184 181 185 171 141 114 118 205 224 256 265 255 263 271 280 289 292 291 291 295 298 301 305 303 302 302 302 302 300 299 297 298
252 248 259 266 277 279 291 310 345 299 340 320 284 267 310 353 316 319 335 294 314 312 308 308 294 291 293 300 305 313 308 310 289 229 131 245 246 186 173 166 117 155 169 181 176 174 179 181 187 191 179 177 177 178 177 180 172 169 142 138 153 144 278 253 253 253 279 285 288 288 287 289 294 296 298 303 308 306 306 304 304 304 303 303 300 299 299
253 257 260 262 273 284 4 27 330 342 300 252 262 318 330 316 304 312 318 312 312 314 302 302 293 295 296 296 296 304 298 229 270 257 270 260 279 287 82 91 160 208 160 144 147 161 159 179 183 184 178 176 178 177 170 169 182 150 139 142 138 182 209 250 274 287 281 286 288 287 286 288 291 296 303 306 306 310 308 307 307 306 306 304 302 301 300
261 269 267 267 266 102 276 333 266 130 248 292 321 307 301 300 313 312 313 310 310 314 307 302 299 296 297 296 299 306 309 274 237 225 218 152 161 186 148 186 187 176 162 172 179 176 166 192 186 181 178 173 179 167 168 167 153 143 127 152 163 172 228 257 263 261 277 280 284 287 288 291 296 300 314 322 311 309 307 307 307 308 307 307 305 304 303
268 259 260 265 311 330 235 285 281 264 268 288 297 303 299 312 308 300 300 299 312 311 301 299 297 296 296 293 294 309 322 305 261 267 260 151 189 184 188 184 155 191 188 169 155 168 177 181 185 179 176 174 178 171 172 171 154 153 151 145 127 193 219 260 268 284 286 290 295 293 297 301 297 304 311 315 309 308 309 305 306 307 308 308 308 308 305
260 271 274 296 304 300 300 292 290 293 308 305 302 296 287 293 298 308 307 306 301 309 305 302 302 297 293 290 294 303 322 294 287 257 211 191 176 176 168 148 136 177 187 169 156 163 169 185 182 176 174 177 164 183 176 142 168 173 158 151 159 207 263 292 311 301 303 310 303 302 307 298 301 313 309 310 313 318 315 308 304 304 307 311 310 307 302
270 265 268 280 278 278 282 281 286 286 278 290 7 319 301 303 301 302 302 300 308 311 310 306 299 294 293 290 295 325 323 275 237 227 212 183 165 149 151 151 166 205 135 138 178 178 175 186 181 174 175 184 175 180 166 162 180 162 162 159 147 292 2 336 344 313 329 312 308 317 302 296 304 314 312 313 317 320 319 311 304 302 306 310 310 307 303
304 268 257 265 282 302 298 296 293 309 63 51 264 277 292 294 299 313 313 314 320 323 319 305 297 295 290 284 276 279 266 267 254 227 186 171 167 158 143 121 151 180 173 167 174 185 177 185 181 171 178 184 167 185 135 157 170 164 150 139 146 125 29 340 359 344 330 330 326 306 297 303 310 316 314 315 321 323 321 320 314 308 305 306 309 312 310
247 267 280 283 283 279 282 276 274 293 302 322 356 336 317 296 293 303 317 325 320 331 311 304 296 289 293 289 287 265 255 256 248 248 197 171 154 136 135 149 166 155 163 226 168 185 177 179 186 175 176 187 161 155 156 175 167 156 138 117 108 80 39 32 7 355 340 328 294 315 320 316 310 313 310 317 322 320 320 322 319 317 313 308 308 311 316
262 261 264 266 270 274 278 280 306 33 324 340 332 312 275 281 295 319 331 327 327 318 309 308 290 280 288 222 237 248 259 247 231 227 191 174 155 153 146 137 190 222 155 210 155 181 166 164 190 175 182 177 178 141 163 163 163 154 127 147 156 94 51 57 22 357 327 332 336 331 324 317 318 312 329 333 309 309 317 323 317 315 312 308 306 307 309
265 272 277 290 281 273 278 274 290 76 292 317 302 297 287 305 302 320 321 323 327 320 310 317 323 341 310 276 263 263 283 261 213 192 180 177 183 163 152 178 153 136 152 216 177 167 162 163 188 174 174 183 172 152 170 163 161 147 166 174 157 103 47 45 38 354 332 328 340 333 330 327 323 320 144 179 267 345 337 324 293 285 297 305 309 312 312
269 260 256 252 284 298 290 296 302 312 317 304 301 303 306 286 288 321 324 326 329 331 342 327 327 323 320 307 293 302 309 303 260 246 219 182 178 149 169 181 181 152 123 173 181 172 162 164 179 175 168 192 156 162 158 165 163 172 183 183 110 84 43 27 56 331 326 330 339 332 332 332 330 325 321 311 154 166 279 316 299 300 306 304 310 315 317
279 284 288 285 277 278 300 309 307 303 305 314 305 304 299 289 305 318 326 333 341 319 335 312 310 313 308 306 304 280 250 242 199 221 216 204 174 189 182 198 117 117 156 162 155 158 161 169 164 156 156 158 160 158 152 163 165 176 172 142 61 24 45 2 203 267 325 334 336 334 336 335 329 328 323 324 329 16 33 358 328 313 302 312 319 324 326
292 311 319 309 287 281 288 292 295 292 318 348 320 309 288 293 311 323 317 323 348 302 287 297 299 303 304 299 286 274 248 232 249 212 192 87 8 259 163 153 126 144 145 138 132 145 151 149 145 150 150 147 143 150 161 173 178 165 139 99 74 25 8 352 320 338 329 339 337 341 341 338 333 335 333 335 330 338 349 2 337 319 315 323 329 329 332
239 257 266 275 282 288 288 294 282 284 342 318 314 299 279 279 345 317 276 242 261 253 260 272 286 287 286 289 273 219 207 193 246 255 227 169 153 160 137 116 125 131 131 125 122 129 139 141 144 149 151 154 158 164 173 183 166 151 143 121 59 33 28 356 322 328 335 335 342 342 345 340 338 337 334 335 331 337 344 346 340 336 333 334 336 335 337
280 259 248 263 271 278 273 252 279 309 300 296 292 275 270 298 164 216 271 248 226 206 219 249 265 278 285 282 252 200 165 174 159 75 123 140 110 109 104 110 115 116 112 108 108 114 128 144 150 160 164 165 169 173 182 177 162 158 138 148 141 121 171 291 336 322 332 333 342 342 351 345 341 342 346 339 332 333 1 1 346 340 337 344 339 342 343
319 317 305 291 285 281 279 294 302 294 292 276 262 272 297 302 290 278 263 244 163 156 224 258 265 273 283 252 195 128 102 78 79 110 121 111 104 99 100 94 92 94 100 109 120 131 147 154 160 163 160 161 175 179 183 169 181 165 171 184 264 251 197 200 253 328 336 342 327 343 346 347 328 345 349 341 340 337 358 12 357 342 340 340 336 334 342
306 293 287 282 338 323 309 299 293 286 279 289 289 300 292 289 283 275 252 227 155 165 208 241 257 265 274 263 192 120 99 92 84 89 98 103 102 101 101 94 90 86 83 81 92 124 144 148 156 157 164 166 182 197 188 180 200 210 195 228 258 256 292 340 342 323 321 321 336 349 313 279 304 357 347 345 343 345 352 5 0 355 346 338 340 342 350
295 315 312 311 258 245 276 293 286 279 302 306 298 294 298 292 284 263 248 172 154 181 209 235 253 258 229 195 127 105 98 88 84 81 81 82 97 106 110 105 92 75 65 61 68 83 99 121 149 144 129 153 180 197 217 190 216 240 235 242 284 321 337 8 346 332 324 332 343 333 314 341 340 350 352 349 348 343 357 7 12 360 352 346 341 350 355
284 283 269 254 271 295 290 279 293 317 308 301 305 300 299 298 291 282 179 149 176 182 232 256 264 225 157 143 127 107 100 90 85 82 77 73 71 69 66 67 72 67 60 56 54 63 79 73 60 62 41 49 27 44 275 243 265 271 255 261 259 95 68 68 314 319 313 317 323 321 330 345 345 344 5 350 348 349 1 3 15 9 358 349 353 352 352
318 296 315 3 323 346 321 336 341 329 323 323 317 308 303 299 284 80 112 153 167 178 206 230 240 170 136 127 112 108 102 97 92 85 78 72 69 69 71 73 71 69 64 58 56 50 52 63 66 67 72 69 64 54 48 41 30 18 6 356 336 282 144 118 288 306 317 309 303 308 348 350 343 348 3 354 352 352 3 4 11 16 18 6 358 355 349
263 266 51 14 16 9 359 355 345 335 328 324 309 289 289 272 170 122 128 139 133 233 208 160 178 157 140 124 114 108 103 97 90 84 81 76 74 72 73 72 72 69 62 54 51 53 49 48 49 51 59 68 79 90 91 56 28 4 290 285 278 290 135 236 51 328 300 297 311 342 334 328 336 355 3 347 350 347 13 6 8 15 27 21 2 346 347
52 53 43 35 17 10 356 350 349 335 324 318 305 298 269 92 115 129 137 145 142 168 169 158 176 163 125 115 108 102 93 88 84 84 82 82 78 76 74 74 73 71 68 61 55 47 46 43 41 42 47 51 50 49 64 95 189 236 244 255 264 293 297 321 322 306 305 313 320 314 328 5 356 2 348 343 352 356 11 13 10 12 21 20 10 329 341
66 64 52 45 35 26 24 14 0 342 330 330 314 275 122 130 132 127 125 136 144 164 162 161 149 122 110 108 101 93 93 93 91 88 87 84 84 81 80 78 76 71 68 64 59 56 50 47 38 45 51 46 47 45 29 7 358 2 29 355 329 306 296 292 294 295 309 322 317 320 325 346 1 358 342 341 11 354 6 21 14 15 21 15 8 10 9
73 71 64 52 42 36 34 27 21 8 355 353 44 57 61 86 98 108 118 125 130 142 116 100 87 115 108 96 93 89 85 84 88 86 84 82 78 76 74 73 71 71 68 65 55 50 47 40 10 333 30 52 48 47 36 2 335 347 339 271 297 280 273 278 280 299 348 326 318 309 328 344 295 293 338 0 21 7 5 12 14 22 26 22 15 17 19
79 80 75 62 51 44 37 31 24 23 34 35 52 73 64 60 60 53 38 45 74 59 58 105 131 119 108 105 102 103 100 97 94 92 88 85 82 78 73 67 61 62 61 60 47 36 24 4 344 22 56 60 54 41 32 10 0 341 325 343 329 342 336 335 351 9 328 296 291 301 326 303 318 0 16 23 36 23 12 6 5 21 34 36 33 21 24
78 76 73 68 61 50 40 32 26 32 52 61 56 52 49 51 47 48 44 27 27 91 129 144 125 114 107 111 109 103 100 94 90 86 81 78 76 73 64 59 55 52 54 49 40 28 17 352 17 46 42 45 43 43 17 6 345 319 353 16 1 22 12 300 280 271 278 287 299 311 333 0 342 357 19 18 10 19 21 7 17 30 30 38 41 39 38
92 84 78 74 67 55 47 41 33 35 42 57 55 51 45 46 44 46 42 36 22 9 95 108 105 106 107 104 100 98 95 94 91 86 83 80 76 71 65 58 57 45 36 40 48 36 21 10 31 36 32 33 27 24 357 352 336 335 24 13 5 12 15 19 355 315 311 303 323 340 340 19 349 4 11 17 20 15 44 60 30 35 31 38 40 41 44
81 78 75 73 66 59 50 48 42 36 40 46 46 43 41 47 47 47 43 39 34 31 28 40 76 100 105 106 106 105 102 99 95 90 85 81 76 72 69 59 47 38 9 7 45 44 32 18 25 32 19 10 12 8 342 339 324 346 30 21 18 11 21 13 15 7 3 347 85 227 290 51 14 359 15 11 18 24 24 33 35 36 37 37 46 50 46
94 92 86 76 69 61 54 51 50 46 46 47 48 47 46 52 53 52 50 46 40 39 39 32 37 51 52 66 76 71 65 63 73 79 83 78 70 63 60 54 37 24 6 358 41 39 41 35 30 19 12 355 358 349 344 330 327 44 36 30 17 20 14 11 15 18 12 357 352 9 33 4 26 18 9 10 28 19 24 29 33 31 36 36 35 42 50
96 93 87 83 75 69 64 61 59 58 53 51 53 53 51 49 52 54 52 49 43 42 41 37 25 28 92 87 82 80 81 78 72 64 57 53 55 61 55 51 30 19 353 346 38 40 33 29 25 19 8 345 337 336 333 317 355 18 29 39 26 26 24 18 17 16 15 17 10 3 10 3 13 27 353 3 21 21 15 20 28 26 26 35 41 39 40
94 92 91 86 82 78 74 69 65 64 62 56 53 55 57 57 56 54 52 53 50 44 43 41 40 38 43 57 66 74 79 82 83 80 73 65 54 47 44 41 29 22 355 357 17 39 32 29 15 10 346 344 333 332 326 333 22 14 22 24 28 23 25 22 21 22 21 16 17 18 14 13 11 16 7 2 2 12 10 2 2 10 10 20 30 31 38
93 91 90 89 87 84 81 79 77 74 71 64 61 59 60 59 56 56 57 57 52 42 40 47 50 47 44 53 58 58 59 52 48 53 66 76 67 52 40 30 26 16 3 354 20 28 34 22 13 352 345 345 340 336 327 13 15 20 18 24 19 21 21 20 21 25 22 20 18 18 19 24 23 17 13 10 3 7 8 358 357 358 2 360 6 10 17
90 88 88 89 91 88 83 79 79 81 83 85 78 70 64 59 52 47 49 49 49 45 39 38 36 37 40 41 49 56 54 53 51 44 49 46 48 45 31 23 21 11 357 339 21 23 33 16 3 353 351 344 341 330 342 17 11 19 15 19 20 18 17 20 17 21 24 21 19 20 18 18 27 23 22 22 17 11 10 357 354 357 2 3 7 7 5
95 94 92 90 87 88 90 93 95 92 88 84 82 79 77 78 79 69 58 60 60 55 50 43 41 38 33 28 24 32 54 52 43 41 52 51 48 48 46 32 14 5 337 341 38 21 27 18 7 357 348 345 336 329 16 12 13 13 17 15 19 18 17 17 14 14 22 20 16 20 18 13 17 25 21 22 25 16 12 5 2 0 3 2 8 11 3
94 93 92 90 89 87 87 85 86 86 87 84 81 80 83 85 81 77 78 79 77 74 67 62 56 47 36 33 28 23 14 33 74 46 29 44 75 81 81 53 20 2 346 25 51 40 31 20 7 355 349 341 332 3 12 14 14 12 14 16 16 21 15 17 11 10 13 20 12 22 30 24 17 16 16 15 20 18 14 16 15 6 3 0 0 7 9
96 97 97 95 92 91 91 90 84 79 77 77 81 86 86 85 86 96 102 99 87 80 77 78 72 62 47 42 46 40 26 10 20 46 33 31 34 33 37 39 27 356 346 113 102 67 47 29 14 360 347 338 355 20 10 16 14 13 12 15 15 20 14 13 11 9 6 11 13 15 14 22 25 23 22 19 15 16 13 12 16 11 5 6 6 2 6
94 95 92 91 93 96 93 90 89 86 79 76 75 75 76 77 72 63 65 68 85 100 95 85 80 79 84 67 39 43 49 36 24 24 29 28 29 25 30 54 43 16 5 18 16 36 52 36 27 8 354 359 20 16 17 13 17 14 16 15 14 22 19 12 14 9 8 9 15 15 12 16 22 19 19 21 19 18 16 16 17 16 8 5 6 5 5
104 101 96 90 84 76 75 73 72 71 74 71 74 74 69 61 62 49 37 40 49 37 55 54 38 37 24 28 54 52 44 49 41 22 29 33 34 35 21 31 37 25 17 12 19 17 44 37 33 21 8 17 22 22 19 16 18 18 15 18 19 20 23 12 12 18 17 11 16 20 16 14 18 18 20 22 19 18 19 17 17 18 12 13 13 7 7
90 86 79 77 72 66 61 59 60 58 64 64 53 30 51 86 89 69 43 6 24 38 22 59 62 37 25 28 20 42 31 31 49 43 27 23 23 56 42 10 31 30 15 11 16 18 15 21 25 18 14 16 18 22 22 17 17 20 16 15 16 22 20 16 12 13 18 15 12 20 21 16 14 17 19 20 18 19 18 18 15 17 17 17 13 10 8
91 92 92 87 83 79 80 76 73 70 61 47 44 47 31 21 58 77 76 41 23 40 15 12 41 49 30 30 14 22 35 45 19 12 37 37 12 13 37 22 15 22 14 10 10 17 16 16 24 31 23 18 17 13 16 22 24 22 16 12 13 22 30 26 16 11 13 18 19 19 22 21 13 17 20 18 17 17 18 19 18 18 17 15 14 12 9